Location: Passau
(48.5721°N, 13.4363°E)
Time: 13:23:39
(UTC+01:00)

ISS - Pass Details

Date: 07 January 2018
Orbit: 402 x 407 km, 51.6° (Epoch: 22 January)

Event Time Altitude Azimuth Distance (km) Brightness Sun altitude
Exits shadow 05:56:04 47° 1° (N) 551 -3.3 -19.2°
Maximum altitude 05:56:05 47° 2° (N) 551 -3.3 -19.2°
Drops below altitude 10° 05:59:17 10° 78° (ENE) 1,470 0.0 -18.7°
Sets 06:01:25 0° 85° (E) 2,332 1.4 -18.3°
